AAL7V KMCO-KORD

Flight info

Callsign AAL7V
Flight time N/A
Altitude 38000
Route RDSOX1 JFRYS BRUTS Q118 KAILL/N0480F370 Q118 VOSTK/N0481F380 Q118 HEVAN BONNT VEECK5
Aircraft A339/H-SADE1E2E3GHIJ3J5M1P2RWXY/LB2D1

Departure

Time N/A
Airport Orlando International Airport (KMCO)

Arrival

Time 2026-04-30 20:44
Airport Chicago O'Hare International Airport (KORD)
Time Latitude Longitude Altitude Speed Heading
2026-04-30 19:51 38.78279 -84.86214 38030 ft 426 kts 330°
2026-04-30 19:51 38.81056 -84.87509 38024 ft 426 kts 330°
2026-04-30 19:52 38.86624 -84.90105 38042 ft 427 kts 330°
2026-04-30 19:52 38.92213 -84.92718 38007 ft 429 kts 330°
2026-04-30 19:53 38.97806 -84.95336 38029 ft 429 kts 330°
2026-04-30 19:53 39.03422 -84.97961 38035 ft 430 kts 330°
2026-04-30 19:54 39.09045 -85.00607 38034 ft 431 kts 330°
2026-04-30 19:54 39.14703 -85.03265 38024 ft 431 kts 330°
2026-04-30 19:55 39.20353 -85.05926 38005 ft 433 kts 331°
2026-04-30 19:55 39.25990 -85.08586 38013 ft 433 kts 331°
2026-04-30 19:56 39.31667 -85.11269 38020 ft 434 kts 331°
2026-04-30 19:56 39.37337 -85.13953 38023 ft 434 kts 331°
2026-04-30 19:57 39.43002 -85.16639 38023 ft 435 kts 332°
2026-04-30 19:57 39.48666 -85.19326 38019 ft 435 kts 332°
2026-04-30 19:58 39.54321 -85.22015 38013 ft 435 kts 332°
2026-04-30 19:58 39.60032 -85.24735 38010 ft 435 kts 332°
2026-04-30 19:59 39.65692 -85.27441 38003 ft 435 kts 332°
2026-04-30 20:00 39.74201 -85.31509 38017 ft 436 kts 332°
2026-04-30 20:00 39.79921 -85.34251 38023 ft 437 kts 332°
2026-04-30 20:01 39.88498 -85.38371 38032 ft 439 kts 332°
2026-04-30 20:01 39.94213 -85.41124 38033 ft 440 kts 332°
2026-04-30 20:02 40.02855 -85.45294 38039 ft 441 kts 333°
2026-04-30 20:03 40.11469 -85.49459 38034 ft 442 kts 333°
2026-04-30 20:03 40.17238 -85.52259 38032 ft 443 kts 333°
2026-04-30 20:04 40.23014 -85.55064 38032 ft 443 kts 333°
2026-04-30 20:05 40.31657 -85.59274 38032 ft 443 kts 333°
2026-04-30 20:05 40.40289 -85.63492 38035 ft 442 kts 333°
2026-04-30 20:06 40.46074 -85.66324 38031 ft 443 kts 332°
2026-04-30 20:06 40.51952 -85.68883 38032 ft 448 kts 336°
2026-04-30 20:07 40.57954 -85.71098 38029 ft 449 kts 337°
2026-04-30 20:08 40.66963 -85.74396 37913 ft 450 kts 337°
2026-04-30 20:08 40.69986 -85.75507 37709 ft 447 kts 337°
2026-04-30 20:08 40.72945 -85.76594 37367 ft 445 kts 336°
2026-04-30 20:08 40.75899 -85.77697 36997 ft 440 kts 334°
2026-04-30 20:09 40.78750 -85.79144 36621 ft 431 kts 328°
2026-04-30 20:09 40.81393 -85.81011 36251 ft 432 kts 321°
2026-04-30 20:09 40.86024 -85.85843 35390 ft 421 kts 309°
2026-04-30 20:10 40.89599 -85.91800 34417 ft 410 kts 298°
2026-04-30 20:10 40.90945 -85.95055 33934 ft 405 kts 292°
2026-04-30 20:10 40.92095 -85.98444 33488 ft 402 kts 291°
2026-04-30 20:11 40.94296 -86.05142 32622 ft 398 kts 291°
2026-04-30 20:11 40.95384 -86.08479 32141 ft 396 kts 291°
2026-04-30 20:11 40.96457 -86.11791 31602 ft 394 kts 291°
2026-04-30 20:12 40.98614 -86.18459 30501 ft 391 kts 291°
2026-04-30 20:12 40.99668 -86.21721 29919 ft 389 kts 291°
2026-04-30 20:12 41.00734 -86.25029 29329 ft 387 kts 292°
2026-04-30 20:13 41.01776 -86.28262 28753 ft 385 kts 291°
2026-04-30 20:13 41.02828 -86.31532 28165 ft 384 kts 292°
2026-04-30 20:13 41.03861 -86.34755 27584 ft 382 kts 292°
2026-04-30 20:13 41.04899 -86.37991 26992 ft 380 kts 292°
2026-04-30 20:14 41.05922 -86.41183 26405 ft 378 kts 292°
2026-04-30 20:14 41.06940 -86.44363 25826 ft 377 kts 292°
2026-04-30 20:14 41.07953 -86.47536 25230 ft 375 kts 292°
2026-04-30 20:14 41.08975 -86.50739 24625 ft 374 kts 292°
2026-04-30 20:15 41.09975 -86.53887 24043 ft 372 kts 292°
2026-04-30 20:15 41.10981 -86.57046 23450 ft 371 kts 292°
2026-04-30 20:15 41.12011 -86.60161 22857 ft 370 kts 294°
2026-04-30 20:15 41.13146 -86.63248 22257 ft 369 kts 296°
2026-04-30 20:16 41.14364 -86.66249 21671 ft 368 kts 297°
2026-04-30 20:16 41.15595 -86.69198 21082 ft 368 kts 297°
2026-04-30 20:16 41.16829 -86.72150 20476 ft 367 kts 297°
2026-04-30 20:16 41.18063 -86.75100 19889 ft 366 kts 297°
2026-04-30 20:17 41.19291 -86.78035 19312 ft 366 kts 297°
2026-04-30 20:17 41.20528 -86.81000 18707 ft 365 kts 297°
2026-04-30 20:17 41.21748 -86.83923 18132 ft 364 kts 297°
2026-04-30 20:17 41.22979 -86.86875 17554 ft 363 kts 297°
2026-04-30 20:18 41.24195 -86.89794 16970 ft 362 kts 297°
2026-04-30 20:18 41.25401 -86.92692 16433 ft 360 kts 298°
2026-04-30 20:18 41.26592 -86.95561 15972 ft 355 kts 298°
2026-04-30 20:18 41.27760 -86.98370 15402 ft 337 kts 298°
2026-04-30 20:19 41.28862 -87.01022 15015 ft 326 kts 298°
2026-04-30 20:19 41.29586 -87.02769 14730 ft 326 kts 298°
2026-04-30 20:19 41.31065 -87.06343 14258 ft 340 kts 298°
2026-04-30 20:19 41.32217 -87.09128 13994 ft 344 kts 298°
2026-04-30 20:20 41.33369 -87.11916 13731 ft 343 kts 298°
2026-04-30 20:20 41.34146 -87.13790 13567 ft 343 kts 298°
2026-04-30 20:20 41.35862 -87.17340 13198 ft 343 kts 304°
2026-04-30 20:20 41.37327 -87.19828 12956 ft 343 kts 308°
2026-04-30 20:21 41.38957 -87.22182 12703 ft 344 kts 313°
2026-04-30 20:21 41.40373 -87.23962 12496 ft 344 kts 315°
2026-04-30 20:21 41.42148 -87.26108 12245 ft 344 kts 315°
2026-04-30 20:21 41.43928 -87.28238 11979 ft 342 kts 315°
2026-04-30 20:22 41.45689 -87.30342 11751 ft 342 kts 315°
2026-04-30 20:22 41.47451 -87.32451 11623 ft 342 kts 315°
2026-04-30 20:22 41.49266 -87.34533 11491 ft 343 kts 318°
2026-04-30 20:22 41.51146 -87.36502 11358 ft 343 kts 320°
2026-04-30 20:23 41.53093 -87.38361 11231 ft 344 kts 322°
2026-04-30 20:23 41.55054 -87.40132 11105 ft 343 kts 323°
2026-04-30 20:23 41.57041 -87.41914 10981 ft 343 kts 323°
2026-04-30 20:23 41.59025 -87.43690 10973 ft 343 kts 323°
2026-04-30 20:24 41.61012 -87.45473 10973 ft 343 kts 323°
2026-04-30 20:24 41.62982 -87.47242 10971 ft 343 kts 323°
2026-04-30 20:24 41.64946 -87.49084 10979 ft 343 kts 320°
2026-04-30 20:24 41.66814 -87.51025 10978 ft 342 kts 318°
2026-04-30 20:25 41.70453 -87.55132 10977 ft 342 kts 316°
2026-04-30 20:25 41.72256 -87.57191 10975 ft 342 kts 316°
2026-04-30 20:26 41.75909 -87.61311 10982 ft 341 kts 317°
2026-04-30 20:26 41.79556 -87.65391 10976 ft 341 kts 316°
2026-04-30 20:26 41.81397 -87.67374 10975 ft 342 kts 320°
2026-04-30 20:27 41.85681 -87.70355 10976 ft 350 kts 335°
2026-04-30 20:27 41.90370 -87.72233 10979 ft 352 kts 339°
2026-04-30 20:28 41.95090 -87.74018 10969 ft 352 kts 339°
2026-04-30 20:28 41.99802 -87.75814 10971 ft 352 kts 339°
2026-04-30 20:29 42.04539 -87.77631 10972 ft 351 kts 339°
2026-04-30 20:30 42.09156 -87.83817 10878 ft 296 kts 278°
2026-04-30 20:30 42.09196 -87.91098 10720 ft 240 kts 271°
2026-04-30 20:31 42.09188 -87.97666 9778 ft 228 kts 271°
2026-04-30 20:32 42.09185 -88.03916 8843 ft 219 kts 270°
2026-04-30 20:32 42.09174 -88.08086 8222 ft 224 kts 270°
2026-04-30 20:33 42.09169 -88.10184 7914 ft 227 kts 269°
2026-04-30 20:33 42.09156 -88.14429 7275 ft 224 kts 269°
2026-04-30 20:33 42.09148 -88.16491 6974 ft 222 kts 269°
2026-04-30 20:34 42.09132 -88.20618 6356 ft 218 kts 268°
2026-04-30 20:34 42.09111 -88.24674 5733 ft 216 kts 269°
2026-04-30 20:35 42.09101 -88.26713 5439 ft 216 kts 269°
2026-04-30 20:35 42.09088 -88.28744 5151 ft 219 kts 269°
2026-04-30 20:35 42.09049 -88.32822 4677 ft 218 kts 269°
2026-04-30 20:36 42.09015 -88.34869 4425 ft 218 kts 264°
2026-04-30 20:36 42.08427 -88.36713 4137 ft 221 kts 224°
2026-04-30 20:36 42.05553 -88.37548 3637 ft 223 kts 160°
2026-04-30 20:37 42.04268 -88.36393 3382 ft 223 kts 127°
2026-04-30 20:37 42.03614 -88.34542 3140 ft 220 kts 103°
2026-04-30 20:37 42.03275 -88.32567 2967 ft 217 kts 101°
2026-04-30 20:37 42.02948 -88.30622 2952 ft 206 kts 102°
2026-04-30 20:38 42.02627 -88.28794 2945 ft 195 kts 102°
2026-04-30 20:38 42.02317 -88.27083 2943 ft 186 kts 103°
2026-04-30 20:38 42.02002 -88.25377 2955 ft 186 kts 103°
2026-04-30 20:39 42.01370 -88.22004 2972 ft 186 kts 103°
2026-04-30 20:39 42.01044 -88.20316 2963 ft 186 kts 105°
2026-04-30 20:39 42.00648 -88.18670 2960 ft 186 kts 105°
2026-04-30 20:40 42.00239 -88.15253 2958 ft 184 kts 91°
2026-04-30 20:40 42.00233 -88.13594 2943 ft 171 kts 88°
2026-04-30 20:40 42.00252 -88.12009 2947 ft 167 kts 87°
2026-04-30 20:41 42.00272 -88.08865 2967 ft 171 kts 88°
2026-04-30 20:41 42.00271 -88.07277 2818 ft 167 kts 89°
2026-04-30 20:41 42.00259 -88.05741 2608 ft 160 kts 90°
2026-04-30 20:41 42.00242 -88.04281 2390 ft 153 kts 89°
2026-04-30 20:42 42.00245 -88.02876 2185 ft 146 kts 88°
2026-04-30 20:42 42.00251 -88.01512 2016 ft 144 kts 88°
2026-04-30 20:42 42.00259 -87.98856 1647 ft 141 kts 88°
2026-04-30 20:43 42.00264 -87.97535 1437 ft 139 kts 88°
2026-04-30 20:43 42.00269 -87.96262 1245 ft 137 kts 88°
2026-04-30 20:43 42.00271 -87.94994 1049 ft 134 kts 88°
2026-04-30 20:44 42.00277 -87.92468 697 ft 133 kts 88°
2026-04-30 20:44 42.00279 -87.91389 684 ft 80 kts 89°
2026-04-30 20:44 42.00275 -87.90462 684 ft 42 kts 93°
2026-04-30 20:45 41.99977 -87.89924 684 ft 36 kts 180°
2026-04-30 20:45 41.99770 -87.89974 684 ft 28 kts 209°
2026-04-30 20:45 41.99587 -87.90041 684 ft 26 kts 176°
2026-04-30 20:46 41.99060 -87.90042 684 ft 25 kts 179°
2026-04-30 20:46 41.98880 -87.90043 684 ft 26 kts 180°
2026-04-30 20:47 41.98509 -87.90044 684 ft 27 kts 180°
2026-04-30 20:47 41.98352 -87.90044 684 ft 13 kts 179°
2026-04-30 20:48 41.98288 -87.90231 684 ft 16 kts 270°
2026-04-30 20:48 41.98288 -87.90408 684 ft 20 kts 270°
2026-04-30 20:48 41.98288 -87.90605 684 ft 21 kts 270°
2026-04-30 20:48 41.98268 -87.90799 684 ft 20 kts 251°
2026-04-30 20:49 41.98219 -87.90861 684 ft 9 kts 182°
2026-04-30 20:49 41.98131 -87.90848 684 ft 18 kts 166°
2026-04-30 20:49 41.97985 -87.90857 684 ft 21 kts 192°
2026-04-30 20:50 41.97689 -87.90936 684 ft 21 kts 190°
2026-04-30 20:50 41.97584 -87.91013 684 ft 16 kts 233°
2026-04-30 20:50 41.97488 -87.91057 684 ft 15 kts 167°
2026-04-30 20:50 41.97400 -87.90971 684 ft 16 kts 136°
2026-04-30 20:51 41.97316 -87.90859 684 ft 18 kts 134°
2026-04-30 20:51 41.97212 -87.90545 684 ft 19 kts 94°
2026-04-30 20:51 41.97204 -87.90366 684 ft 19 kts 93°
2026-04-30 20:52 41.97202 -87.90213 684 ft 15 kts 89°
2026-04-30 20:52 41.97204 -87.90065 684 ft 16 kts 88°
2026-04-30 20:52 41.97238 -87.89812 684 ft 9 kts 44°
2026-04-30 20:53 41.97298 -87.89809 684 ft 10 kts 332°
2026-04-30 20:53 41.97343 -87.89829 684 ft 6 kts
2026-04-30 20:53 41.97392 -87.89791 684 ft 8 kts 37°
2026-04-30 20:54 41.97401 -87.89783 684 ft 0 kts 38°